Погода в Кудельном Ключе

Россия / Новосибирская область     55°09′27″N   84°15′12″E
темп.,
°C
ветер,
м/с
пор.,
м/с
влажн.,
%
обл.,
%
осадки,
мм/ч
давл.,
гПа
погр.,
м
10 апреля, сб
сб1001:00−4св23925 0.0 103545
04:00−3ссв38895 0.0 103498
07:00−3св38885 0.0 1036110
10:00+1св4111005 0.0 1036411
13:00+1св410100100 0.0 1037393
16:00+2св59100100 0.0 1038381
19:00+1ссв3109723 0.0 1039272
22:00−3св249739 0.0 104162
11 апреля, вс
вс1101:00−3св38915 0.0 1041132
04:00−4св24925 0.0 104159
07:00−5ссв229465 0.0 104228
10:000св249296 0.0 1041171
13:00+2ссв348731 0.0 1041377
16:00+4с2375100 0.0 1040434
19:00+2ссв118642 0.0 104010
22:00+1сз118889 0.0 103910
12 апреля, пн
пн1201:000зюз118722 0.0 103810
04:00+1зюз1188100 0.0 103610
07:000з359597 0.0 1036101
10:00+1зюз579271 0.0 1035285
13:00+6зюз6866100 0.0 1033484
16:00+6зюз61069100 0.0 1031511
19:00+4зюз51083100 0.0 1030318
22:00+2зюз4991100 0.2 1030225
13 апреля, вт
вт1301:00+1зюз4898100 3.3 1028201
04:00+1з3799100 2.9 1028237
07:00+2сз3699100 3.1 1029207
10:00+4ссз45814 0.0 1029563
13:00+7зсз465897 0.1 10291684
16:00+8сз695095 0.1 10281972
19:00+6зсз69575 0.2 1028949
22:00+3з49756 0.0 1029254
14 апреля, ср
ср1401:00+2з51183100 0.1 1029332
04:00+1з498997 0.0 1029246
07:00+1з4109166 0.0 1029260
10:00+4зсз610766 0.0 1029742
13:00+7зсз7105391 0.0 10271770
16:00+8з5961100 0.0 10261418
19:00+8з61165100 0.0 10241162
22:00+6зюз61278100 0.1 1022685